Weather History for Patuxent River, MD

Change the Weather History Date:

Sunday, December 9, 2012

  Actual Average Record
Temperature  
Mean Temperature 48 °F -  
Max Temperature 51 °F 50 °F 70 °F (1978)
Min Temperature 44 °F 31 °F 16 °F (2006)
Degree Days  
Heating Degree Days 18    
Moisture  
Dew Point 47 °F    
Average Humidity 93    
Maximum Humidity 100    
Minimum Humidity 87    
Precipitation  
Precipitation 0.10 in - - ()
Sea Level Pressure  
Sea Level Pressure 30.07 in    
Wind  
Wind Speed 2 mph (NNE)    
Max Wind Speed 9 mph    
Max Gust Speed -    
Visibility 2 miles    
Events Fog , Rain    
Averages and records for this station are not official NWS values.
T = Trace of Precipitation, MM = Missing Value Source: NWS Daily Summary

Daily Weather History Graph

Daily Weather History Graph

Search for Another Location

Airport:

Trip Planner

Search our weather history database for the weather conditions in past years. The results will help you decide how hot, cold, wet, or windy it might be!

Date:

Astronomy

Dec. 09, 2012 Rise Set
Actual Time 7:11 AM EST 4:45 PM EST
Civil Twilight 6:41 AM EST 5:14 PM EST
Nautical Twilight 6:08 AM EST 5:47 PM EST
Astronomical Twilight 5:36 AM EST 6:19 PM EST
Moon 2:44 AM EST (12/9) 1:48 PM EST (12/9)
Length of Visible Light 10h 33m
Length of Day
9h 34m
Waning Crescent, 19% of the Moon is Illuminated
Dec 9
Waning Crescent
Dec 13
New
Dec 20
First Quarter
Dec 28
Full
Jan 4
Last Quarter

Hourly Weather History & Observations

Time (EST) Temp. Windchill Dew Point Humidity Pressure Visibility Wind Dir Wind Speed Gust Speed Precip Events Conditions
12:21 AM 46.4 °F - 44.6 °F 93% 30.02 in 4.0 mi Calm Calm - N/A   Scattered Clouds
12:36 AM 44.6 °F - 42.8 °F 93% 30.02 in 1.8 mi Calm Calm - N/A   Clear
12:39 AM 44.6 °F - 42.8 °F 93% 30.02 in 1.2 mi Calm Calm - N/A   Partly Cloudy
12:42 AM 44.6 °F - 42.8 °F 93% 30.02 in 0.8 mi Calm Calm - N/A   Mist
12:52 AM 44.1 °F - 42.1 °F 93% 30.03 in 1.5 mi Calm Calm - N/A   Partly Cloudy
12:54 AM 44.6 °F - 42.8 °F 93% 30.03 in 3.0 mi Calm Calm - N/A   Partly Cloudy
1:52 AM 46.0 °F - 44.1 °F 93% 30.03 in 6.0 mi Calm Calm - N/A   Overcast
2:52 AM 45.0 °F 43.5 °F 44.1 °F 97% 30.06 in 5.0 mi WNW 3.5 mph - N/A   Mostly Cloudy
3:09 AM 44.6 °F - 42.8 °F 93% 30.06 in 5.0 mi Calm Calm - N/A   Overcast
3:52 AM 46.0 °F 44.8 °F 44.1 °F 93% 30.06 in 5.0 mi WNW 3.5 mph - N/A   Overcast
4:07 AM 46.4 °F 44.3 °F 44.6 °F 93% 30.06 in 5.0 mi West 4.6 mph - N/A   Overcast
4:52 AM 46.0 °F - 44.1 °F 93% 30.06 in 5.0 mi Calm Calm - N/A   Overcast
5:13 AM 46.4 °F - 44.6 °F 93% 30.07 in 4.0 mi Calm Calm - N/A   Overcast
5:31 AM 46.4 °F 45.2 °F 44.6 °F 93% 30.07 in 1.5 mi NNW 3.5 mph - N/A   Overcast
5:33 AM 46.4 °F 45.2 °F 44.6 °F 93% 30.08 in 1.0 mi NW 3.5 mph - N/A   Mist
5:38 AM 46.4 °F 43.5 °F 44.6 °F 93% 30.08 in 0.5 mi NW 5.8 mph - N/A Fog Fog
5:49 AM 48.2 °F - 44.6 °F 87% 30.08 in 0.8 mi NW 3.5 mph - N/A   Mist
5:52 AM 48.0 °F - 46.0 °F 93% 30.09 in 0.5 mi NW 3.5 mph - N/A Fog Fog
6:07 AM 48.2 °F - 46.4 °F 93% 30.08 in 0.5 mi Calm Calm - N/A Fog Fog
6:52 AM 48.9 °F - 46.9 °F 93% 30.10 in 0.5 mi North 5.8 mph - N/A Fog Fog
7:33 AM 48.2 °F - 48.2 °F 100% 30.13 in 0.2 mi Calm Calm - N/A Fog Fog
7:52 AM 48.9 °F - 48.0 °F 97% 30.15 in 0.2 mi North 3.5 mph - N/A Fog Fog
8:52 AM 48.9 °F - 46.9 °F 93% 30.15 in 0.5 mi North 8.1 mph - N/A Fog Fog
9:52 AM 50.0 °F - 48.0 °F 93% 30.16 in 0.5 mi NNE 9.2 mph - N/A Fog Fog
10:52 AM 50.0 °F - 48.9 °F 96% 30.15 in 1.5 mi NE 8.1 mph - N/A   Overcast
11:33 AM 50.0 °F - 48.2 °F 94% 30.13 in 4.0 mi NE 6.9 mph - N/A   Overcast
11:52 AM 51.1 °F - 48.9 °F 92% 30.13 in 4.0 mi ENE 6.9 mph - N/A   Overcast
12:52 PM 51.1 °F - 48.9 °F 92% 30.12 in 3.0 mi East 5.8 mph - N/A   Overcast
1:52 PM 51.1 °F - 48.9 °F 92% 30.11 in 1.2 mi East 6.9 mph - 0.00 in   Light Drizzle
2:52 PM 50.0 °F - 48.9 °F 96% 30.11 in 1.0 mi East 4.6 mph - 0.00 in   Light Drizzle
3:52 PM 50.0 °F - 48.9 °F 96% 30.11 in 0.8 mi East 5.8 mph - 0.00 in   Light Drizzle
4:21 PM 50.0 °F - 48.2 °F 94% 30.11 in 0.5 mi East 4.6 mph - 0.00 in Fog Drizzle
4:52 PM 50.0 °F - 48.0 °F 93% 30.11 in 0.5 mi East 3.5 mph - 0.01 in Fog Drizzle
5:52 PM 50.0 °F - 48.9 °F 96% 30.11 in 0.5 mi Calm Calm - 0.00 in Fog Fog
6:52 PM 50.0 °F - 48.9 °F 96% 30.09 in 0.5 mi Calm Calm - 0.03 in Fog , Rain Light Rain
7:19 PM 50.0 °F - 48.2 °F 94% 30.08 in 0.2 mi Calm Calm - 0.00 in Fog Fog
7:52 PM 50.0 °F - 48.9 °F 96% 30.08 in 0.2 mi Calm Calm - 0.00 in Fog Fog
7:59 PM 51.8 °F - 48.2 °F 88% 30.07 in 0.2 mi Calm Calm - N/A Fog Fog
8:34 PM 51.8 °F - 50.0 °F 94% 30.06 in 0.2 mi East 3.5 mph - 0.00 in Fog Fog
8:52 PM 51.1 °F - 50.0 °F 96% 30.05 in 0.2 mi Calm Calm - 0.00 in Fog Fog
9:52 PM 50.0 °F - 48.9 °F 96% 30.02 in 0.2 mi Calm Calm - N/A Fog Fog
10:52 PM 50.0 °F - 48.9 °F 96% 30.01 in 0.2 mi Calm Calm - 0.01 in Fog , Rain Light Rain
11:31 PM 51.8 °F - 48.2 °F 88% 29.99 in 0.5 mi Calm Calm - 0.05 in Fog , Rain Light Rain
11:40 PM 51.8 °F - 48.2 °F 88% 29.99 in 0.8 mi Calm Calm - 0.05 in   Mist
11:52 PM 51.1 °F - 48.9 °F 92% 29.99 in 0.5 mi Calm Calm - 0.05 in Fog Fog